This is the latest recevied weather packets stored in our database for station/object KU9TRY. If no packets are shown the sender has not sent any weather packets the latest 10 day(s).
| Time | Temp. | Humidity | Pressure | Rain* | Wind** | Luminosity | Snow |
|---|---|---|---|---|---|---|---|
| 1777536894 | 12.22° C | 78% | 1014.9 hPa | 0 mm | - | 0 W/m² | - |
| 1777536592 | 12.22° C | 81% | 1014.7 hPa | 0 mm | - | 0 W/m² | - |
| 1777536288 | 12.22° C | 76% | 1014.8 hPa | 0 mm | - | 0 W/m² | - |
| 1777535680 | 12.78° C | 77% | 1014.4 hPa | 0 mm | - | 0 W/m² | - |
| 1777535074 | 12.78° C | 76% | 1014.3 hPa | 0 mm | - | 0 W/m² | - |
| 1777534772 | 12.78° C | 77% | 1014.4 hPa | 0 mm | - | 0 W/m² | - |
| 1777534468 | 12.78° C | 76% | 1014.3 hPa | 0 mm | - | 0 W/m² | - |
| 1777534165 | 12.78° C | 77% | 1014.3 hPa | 0 mm | - | 0 W/m² | - |
| 1777533863 | 12.78° C | 75% | 1014.3 hPa | 0 mm | - | 0 W/m² | - |
| 1777533560 | 12.78° C | 75% | 1014.2 hPa | 0 mm | - | 0 W/m² | - |
| 1777533255 | 13.33° C | 75% | 1014.4 hPa | 0 mm | - | 0 W/m² | - |
| 1777532952 | 13.33° C | 75% | 1014.3 hPa | 0 mm | - | 0 W/m² | - |
| 1777532649 | 13.33° C | 75% | 1014.4 hPa | 0 mm | - | 0 W/m² | - |
| 1777532347 | 13.33° C | 76% | 1014.4 hPa | 0 mm | - | 0 W/m² | - |
| 1777532042 | 13.33° C | 76% | 1014.4 hPa | 0 mm | - | 0 W/m² | - |
| 1777531738 | 13.33° C | 76% | 1014.7 hPa | 0 mm | - | 0 W/m² | - |
| 1777531435 | 13.33° C | 79% | 1014.7 hPa | 0 mm | - | 0 W/m² | - |
| 1777531133 | 13.33° C | 80% | 1014.7 hPa | 0 mm | - | 0 W/m² | - |
| 1777530830 | 13.33° C | 79% | 1014.6 hPa | 0 mm | - | 0 W/m² | - |
| 1777530528 | 13.89° C | 77% | 1014.5 hPa | 0 mm | - | 0 W/m² | - |
| 1777530224 | 13.89° C | 78% | 1014.5 hPa | 0 mm | - | 0 W/m² | - |
| 1777529921 | 13.89° C | 78% | 1014.7 hPa | 0 mm | - | 0 W/m² | - |
| 1777529617 | 13.89° C | 77% | 1014.5 hPa | 0 mm | - | 0 W/m² | - |
| 1777529315 | 13.89° C | 78% | 1014.6 hPa | 0 mm | - | 0 W/m² | - |
| 1777529011 | 13.89° C | 78% | 1014.6 hPa | 0 mm | - | 0 W/m² | - |
* Rain latest hour (hover to see other rain measurements)
** Current wind speed in m/s (hover to see current wind gust speed)